CAPE
0 0 0 0 0 0 0 0 0 0 0 0 0 0 0 0 0 0 0 0 0 0 0 0 17 144 439 824 1133 1114 1227 1392 1327 1307 1316 1344 1273 1248 1254 1280 1158 1148 1130 822
0 0 0 0 0 0 0 0 0 0 0 0 0 0 0 0 0 0 0 0 0 0 45 70 99 141 382 824 1322 1369 1372 1461 1593 1562 1570 1573 1571 1474 1373 1312 1325 1090 1137 1228
0 0 0 0 0 0 0 0 0 0 0 0 0 0 0 0 0 0 0 0 0 0 18 36 91 218 383 716 1129 1611 1565 1637 1674 1603 1632 1802 1933 1832 1649 1534 1511 1242 1097 1110
0 0 0 0 0 0 0 0 0 0 0 0 0 0 0 0 0 0 0 0 0 0 30 153 147 320 460 751 1170 1579 1704 1876 1969 1835 1733 1763 1880 1977 1953 1775 1654 1746 1416 1208
0 0 0 0 0 0 0 0 0 0 0 0 0 0 0 0 0 0 0 0 0 0 0 79 208 434 670 789 1157 1650 1733 1887 2024 2062 1977 1976 1912 1930 2080 2118 1894 1799 1664 1397
0 0 0 0 0 0 0 0 0 0 0 0 0 0 0 0 0 0 0 0 0 0 33 175 397 695 802 800 1078 1500 1790 1884 2070 2155 2142 2104 2053 2088 2168 2238 2289 2092 1957 1704
0 0 0 0 0 0 0 0 0 0 0 0 0 0 0 0 0 0 0 0 0 0 42 191 460 724 850 905 927 1213 1675 1983 2152 2315 2280 2200 2210 2211 2261 2278 2392 2470 2258 2139
0 0 0 0 6 32 8 0 0 0 0 0 0 0 2 0 9 0 8 58 176 0 0 146 439 598 812 930 1039 1135 1345 1607 1918 2092 2353 2341 2267 2371 2393 2466 2561 2661 2620 2465
0 0 0 0 0 0 4 29 99 0 22 197 226 250 334 366 480 591 738 1109 1533 1307 1295 732 0 664 556 773 940 1027 1191 1309 1423 1721 2208 2313 2273 2307 2332 2421 2519 2565 2510 2167
49 15 0 28 45 4 8 83 86 222 497 771 633 944 864 932 1043 1419 1897 1717 2000 1894 1826 1866 2034 1582 440 893 714 718 927 1150 1284 1327 1812 2122 2186 2299 2434 2564 2569 2287 1900 1577
47 21 0 37 0 0 0 0 76 111 239 476 788 831 907 1064 1276 1644 1781 1604 1682 1813 1726 1590 1245 1553 1453 1367 1474 1038 845 883 1025 1152 1454 1694 1235 1973 2495 2411 2351 1873 1574 1034
6 8 0 0 0 0 0 0 1 6 36 20 193 553 684 843 776 981 1313 1286 1205 950 841 523 7 0 26 342 877 1159 1461 1023 1188 1133 888 695 885 869 791 1193 920 693 587 201
126 0 0 0 0 0 0 0 0 0 0 0 0 60 178 297 319 263 235 134 6 6 272 312 225 31 0 0 0 4 158 529 723 561 578 876 793 662 560 5 3 0 0 3
136 0 0 7 0 0 0 0 0 0 0 0 0 0 108 246 351 322 394 502 569 544 511 441 528 630 331 0 2 184 119 4 266 300 608 700 411 256 6 16 11 0 0 0
133 7 0 1 0 0 0 0 0 0 0 0 0 0 0 23 106 164 243 384 428 388 275 35 243 198 126 183 284 22 87 63 191 494 150 102 18 0 0 0 2 0 1 0
25 1 0 0 0 0 0 0 0 0 0 0 0 0 0 0 0 43 40 79 242 151 42 65 101 127 257 231 177 0 0 70 175 9 4 0 0 0 0 0 0 2 19 3
0 0 0 0 0 0 0 0 0 0 0 0 0 0 0 0 0 0 1 13 14 13 0 0 0 0 0 38 110 82 98 136 94 21 1 0 21 52 0 0 19 21 20 0
0 0 0 0 0 0 0 0 0 0 0 0 0 0 0 0 0 0 0 0 0 0 0 0 0 0 0 0 5 205 163 217 241 174 86 73 77 98 71 30 9 3 0 0
0 0 0 0 0 0 0 0 0 0 4 1 0 0 0 0 0 0 0 0 0 0 0 0 0 0 0 0 0 75 147 160 139 112 97 57 25 19 14 3 0 0 0 0
6 5 5 30 19 15 16 12 18 19 3 0 0 1 0 0 0 0 0 0 0 0 0 0 0 0 0 0 0 0 0 2 2 12 52 68 46 27 28 19 5 4 0 0
5 1 5 9 0 2 16 9 28 21 16 23 33 25 31 17 0 0 0 0 0 0 0 0 0 0 0 0 0 0 0 0 0 0 2 36 34 48 57 39 20 11 0 0
0 0 0 0 0 0 0 0 2 4 9 26 10 10 8 0 0 0 0 0 0 0 0 0 0 0 0 0 0 8 17 4 6 1 1 4 13 34 29 31 10 3 0 0
0 0 0 0 0 0 0 0 0 0 0 0 0 1 0 0 0 0 0 0 0 0 0 0 0 0 0 0 0 1 13 6 13 25 22 25 40 26 8 3 8 11 10 0
0 0 0 0 0 0 0 0 0 0 0 0 0 0 0 0 0 0 0 0 0 0 0 0 0 0 0 0 0 0 0 0 1 12 7 2 1 3 23 9 24 19 17 0
0 0 0 0 0 0 0 0 0 0 0 0 0 0 0 0 0 0 0 0 0 0 0 0 0 0 0 0 0 0 0 0 0 0 0 0 0 0 0 0 0 0 7 9
0 0 0 0 0 0 0 0 0 0 0 0 0 0 0 0 0 0 0 0 0 0 0 0 0 0 0 0 0 0 0 0 0 0 0 0 0 0 0 0 0 0 0 0
0 0 0 0 0 0 0 0 0 0 0 0 0 0 0 0 0 0 0 0 0 0 0 0 0 0 0 0 0 0 0 0 0 0 0 0 0 0 0 0 0 0 0 0
CIN
-0 -0 -0 -0 -0 -0 -0 -0 -0 -0 -0 -0 -0 -0 -0 -0 -0 -0 -0 -0 -0 -0 -0 -0 -370 -452 -548 -589 -584 -542 -521 -498 -459 -381 -328 -312 -291 -308 -306 -340 -358 -315 -288 -320
-0 -0 -0 -0 -0 -0 -0 -0 -0 -0 -0 -0 -0 -0 -0 -0 -0 -0 -0 -0 -0 -4 -286 -277 -297 -343 -522 -574 -613 -564 -532 -511 -489 -406 -352 -318 -312 -323 -344 -355 -351 -377 -345 -297
-0 -0 -0 -0 -0 -0 -0 -0 -0 -0 -0 -0 -0 -0 -0 -0 -0 -0 -0 -0 -0 -0 -206 -201 -273 -308 -410 -467 -587 -561 -515 -528 -507 -465 -408 -337 -301 -287 -342 -376 -367 -414 -401 -382
-0 -0 -0 -0 -0 -0 -0 -0 -0 -0 -0 -0 -0 -0 -0 -0 -0 -0 -0 -0 -0 -134 -296 -204 -224 -405 -416 -535 -568 -575 -534 -524 -482 -459 -456 -419 -350 -315 -316 -345 -379 -361 -412 -411
-0 -0 -0 -0 -0 -0 -0 -0 -0 -0 -0 -0 -0 -0 -0 -0 -0 -0 -0 -0 -0 -0 -0 -247 -256 -344 -447 -534 -514 -558 -486 -515 -511 -476 -454 -438 -413 -389 -324 -268 -316 -364 -374 -376
-0 -0 -0 -0 -0 -0 -0 -0 -0 -0 -0 -0 -0 -0 -0 -0 -0 -0 -0 -0 -0 -0 -264 -224 -260 -377 -439 -467 -488 -485 -487 -486 -525 -520 -455 -447 -442 -400 -352 -301 -281 -251 -281 -313
-0 -0 -0 -0 -0 -0 -0 -0 -0 -0 -0 -0 -0 -0 -0 -0 -0 -0 -0 -0 -0 -0 -226 -227 -275 -356 -348 -435 -425 -388 -440 -505 -551 -501 -467 -466 -424 -354 -336 -315 -245 -186 -197 -188
-0 -0 -0 -0 -353 -264 -274 -0 -0 -0 -0 -0 -0 -0 -155 -0 -207 -0 -185 -206 -220 -0 -0 -288 -367 -326 -298 -370 -346 -416 -470 -505 -515 -526 -495 -450 -411 -335 -319 -272 -208 -158 -129 -109
-0 -0 -0 -0 -54 -191 -585 -500 -430 -0 -197 -186 -204 -210 -255 -254 -270 -265 -266 -264 -322 -332 -417 -473 -34 -476 -349 -291 -317 -380 -451 -416 -460 -529 -519 -475 -449 -400 -276 -238 -173 -97 -97 -133
-18 -52 -0 -264 -370 -524 -553 -458 -578 -532 -311 -275 -223 -250 -254 -267 -249 -241 -258 -240 -273 -244 -292 -409 -473 -415 -516 -443 -424 -467 -423 -410 -484 -536 -525 -454 -404 -315 -236 -146 -144 -134 -159 -183
-34 -86 -0 -255 -0 -0 -0 -225 -508 -556 -570 -492 -407 -403 -392 -368 -371 -362 -348 -352 -324 -268 -270 -301 -499 -528 -592 -594 -517 -443 -442 -470 -495 -559 -528 -423 -622 -379 -224 -163 -103 -190 -193 -208
-68 -153 -0 -0 -0 -0 -0 -0 -172 -315 -479 -608 -552 -448 -426 -380 -470 -427 -358 -378 -343 -378 -362 -448 -244 -0 -229 -718 -550 -492 -410 -434 -384 -410 -669 -730 -594 -577 -632 -390 -259 -334 -260 -269
-43 -3 -0 -0 -0 -0 -0 -0 -0 -0 -0 -0 -0 -590 -518 -499 -522 -534 -516 -536 -399 -18 -511 -549 -595 -689 -0 -0 -0 -23 -536 -380 -381 -552 -539 -476 -466 -343 -372 -455 -22 -24 -0 -195
-66 -0 -0 -33 -0 -0 -0 -0 -0 -0 -0 -0 -0 -72 -463 -406 -356 -364 -357 -343 -353 -367 -386 -425 -432 -394 -545 -0 -87 -502 -471 -131 -220 -333 -237 -328 -412 -347 -588 -138 -151 -0 -0 -0
-18 -100 -0 -0 -0 -0 -0 -0 -0 -0 -0 -0 -0 -0 -0 -370 -312 -314 -309 -280 -300 -291 -342 -515 -457 -501 -452 -405 -325 -324 -381 -203 -53 -43 -66 -89 -248 -0 -0 -0 -148 -0 -0 -0
-55 -22 -0 -0 -0 -0 -0 -0 -0 -0 -0 -0 -0 -0 -0 -0 -25 -310 -339 -298 -216 -215 -307 -361 -400 -380 -256 -167 -180 -0 -0 -8 -13 -165 -58 -0 -0 -0 -0 -0 -0 -210 -317 -270
-0 -0 -0 -0 -0 -0 -0 -0 -0 -0 -0 -0 -0 -0 -0 -0 -0 -0 -285 -267 -226 -190 -0 -0 -0 -0 -0 -263 -90 -125 -93 -89 -153 -247 -12 -13 -353 -285 -0 -0 -193 -183 -200 -0
-0 -0 -0 -0 -0 -0 -0 -0 -0 -0 -0 -0 -0 -0 -0 -0 -0 -0 -0 -0 -0 -0 -0 -0 -0 -0 -0 -0 -76 -112 -109 -107 -126 -152 -175 -179 -206 -219 -244 -257 -253 -158 -0 -0
-1 -9 -0 -0 -0 -0 -0 -0 -0 -0 -19 -31 -0 -0 -0 -0 -0 -0 -0 -0 -0 -0 -0 -0 -0 -0 -0 -0 -0 -146 -104 -100 -111 -123 -132 -168 -183 -182 -176 -201 -0 -0 -0 -0
-20 -16 -10 -13 -16 -11 -17 -38 -36 -35 -35 -0 -0 -38 -0 -0 -0 -0 -0 -31 -0 -0 -0 -0 -0 -0 -0 -0 -0 -0 -0 -23 -18 -123 -87 -65 -65 -85 -113 -146 -185 -204 -31 -0
-13 -19 -18 -9 -9 -24 -34 -43 -35 -28 -31 -34 -33 -32 -31 -51 -0 -0 -0 -0 -0 -0 -0 -0 -0 -0 -0 -0 -0 -0 -0 -0 -0 -0 -94 -91 -98 -99 -111 -129 -133 -156 -0 -0
-0 -0 -0 -0 -0 -0 -0 -0 -34 -38 -43 -34 -43 -32 -34 -0 -0 -0 -0 -0 -0 -0 -0 -0 -0 -0 -0 -0 -0 -106 -122 -116 -124 -59 -108 -106 -91 -92 -102 -140 -169 -177 -87 -0
-0 -0 -0 -0 -0 -0 -0 -0 -0 -0 -0 -0 -0 -20 -5 -0 -0 -0 -0 -0 -0 -0 -0 -0 -0 -0 -0 -0 -0 -21 -84 -66 -80 -92 -98 -89 -61 -66 -70 -64 -59 -71 -83 -37
-0 -0 -0 -0 -0 -0 -0 -0 -0 -0 -0 -0 -0 -0 -0 -0 -0 -0 -0 -0 -0 -0 -0 -0 -0 -0 -0 -0 -0 -0 -0 -0 -8 -102 -104 -7 -7 -66 -61 -54 -67 -86 -98 -0
-0 -0 -0 -0 -0 -0 -0 -0 -0 -0 -0 -0 -0 -0 -0 -0 -0 -0 -0 -0 -0 -0 -0 -0 -0 -0 -0 -0 -0 -0 -0 -0 -0 -0 -0 -0 -0 -0 -0 -0 -0 -0 -77 -121
-0 -0 -0 -0 -0 -0 -0 -0 -0 -0 -0 -0 -0 -0 -0 -0 -0 -0 -0 -0 -0 -0 -0 -0 -0 -0 -0 -0 -0 -0 -0 -0 -0 -0 -0 -0 -0 -0 -0 -0 -0 -0 -0 -0
-0 -0 -0 -0 -0 -0 -0 -0 -0 -0 -0 -0 -0 -0 -0 -0 -0 -0 -0 -0 -0 -0 -0 -0 -0 -0 -0 -0 -0 -0 -0 -0 -0 -0 -0 -0 -0 -0 -0 -0 -0 -0 -0 -0
Wind_Speed
43 45 47 45 42 42 41 39 36 33 30 22 24 16 13 16 26 24 20 15 16 19 23 23 25 21 22 21 21 24 24 27 28 26 24 24 25 23 21 20 22 23 19 18
49 44 46 53 50 53 44 42 43 46 45 24 30 43 35 32 32 33 26 16 17 20 23 21 23 25 24 22 22 23 24 29 25 25 24 25 23 21 21 22 20 18 21 19
53 44 46 55 57 53 50 44 39 42 38 28 31 31 31 30 25 25 29 22 15 19 22 20 21 24 25 26 22 22 24 24 24 23 24 24 22 20 23 24 20 20 20 19
50 45 57 56 44 52 53 51 41 38 35 33 32 34 35 26 24 21 22 19 17 21 21 21 16 18 21 22 23 23 22 21 21 21 24 23 22 25 23 22 23 22 21 20
48 48 53 54 42 40 45 49 40 40 37 33 31 30 35 31 30 31 26 23 19 24 21 20 18 17 19 22 25 24 23 23 22 22 23 23 25 26 24 22 22 22 21 19
42 48 55 39 39 41 41 55 43 38 33 28 25 34 33 28 26 24 22 20 19 20 20 20 19 17 17 21 24 26 25 24 23 22 23 24 25 25 24 23 23 23 22 21
53 50 46 39 40 36 44 51 37 38 37 32 30 32 29 20 21 21 21 22 22 21 18 16 16 18 21 22 26 27 25 23 23 23 22 24 23 24 26 25 23 23 22 22
53 52 56 29 30 31 36 43 40 32 30 28 24 19 16 17 18 19 20 21 22 23 23 23 20 20 23 25 24 25 25 24 24 24 23 23 24 25 26 27 25 24 22 20
45 50 38 27 28 32 29 31 27 17 17 17 18 16 13 13 15 17 19 19 21 21 20 23 27 27 28 29 25 25 26 27 27 28 26 26 26 25 28 28 26 25 23 22
41 38 41 26 25 24 21 19 16 15 12 12 10 10 10 11 12 15 17 19 20 22 24 24 24 26 31 34 33 35 35 32 32 31 27 26 26 27 26 29 28 28 25 23
40 34 36 25 22 23 19 13 9 6 6 8 7 7 8 10 13 14 17 18 20 23 26 29 29 28 27 30 34 37 38 40 37 33 30 27 27 26 25 28 28 27 28 25
42 32 25 26 25 21 14 10 6 6 4 5 6 8 10 11 14 16 19 21 23 25 28 29 32 34 33 30 30 33 38 37 33 33 29 27 27 24 20 19 21 19 21 21
26 27 22 20 21 21 13 6 4 2 3 5 8 9 12 15 17 19 21 23 26 28 30 31 33 34 34 34 34 33 31 32 29 29 28 28 22 21 15 10 14 15 15 15
21 22 23 16 29 17 7 5 1 2 5 7 10 12 14 16 18 19 21 23 25 26 28 31 34 35 36 34 37 40 36 35 32 28 27 26 21 18 14 15 22 25 32 17
22 19 25 16 15 8 5 3 3 6 7 8 10 13 15 17 18 19 20 22 22 24 27 29 29 30 30 27 27 29 33 39 42 33 34 27 24 22 28 28 23 11 7 3
22 15 11 7 7 6 5 6 8 10 10 10 11 13 16 18 18 18 19 21 21 23 24 26 28 27 26 22 19 17 17 8 21 20 16 7 3 8 1 5 6 7 7 8
22 14 5 5 9 11 8 8 9 12 12 13 14 13 16 17 18 18 19 20 19 20 22 23 24 23 22 22 19 18 18 17 18 13 9 13 11 6 4 7 10 11 13 12
13 5 5 6 6 8 11 12 13 14 14 15 15 15 11 14 16 17 17 17 18 19 21 21 22 22 21 20 19 18 18 18 16 14 14 11 8 7 11 10 11 11 7 5
4 6 8 9 9 10 11 11 13 13 13 14 14 14 13 15 15 15 16 17 18 19 21 21 21 20 21 20 18 16 14 13 13 13 12 9 7 5 3 4 4 2 4 5
5 8 9 8 8 8 9 10 11 12 14 15 14 14 14 15 16 16 17 18 18 18 20 21 21 20 19 18 18 16 15 13 11 10 7 6 4 3 3 2 0 2 2 2
13 10 10 15 11 7 8 13 12 14 14 15 16 15 13 14 15 17 17 18 20 19 19 20 21 23 23 21 17 15 14 12 11 10 10 10 7 5 5 7 7 7 7 4
15 16 19 18 15 14 14 15 16 16 15 15 17 15 15 15 16 17 18 19 20 21 22 22 22 23 24 22 18 17 15 14 13 13 12 12 13 14 11 11 12 11 11 9
23 22 22 16 14 17 17 16 16 17 17 17 17 16 16 17 18 19 19 21 20 21 22 23 22 21 23 20 16 17 15 13 12 10 11 12 13 14 15 12 10 14 20 15
26 23 21 19 19 18 17 17 18 19 18 20 21 19 19 18 20 20 20 20 21 22 22 23 24 24 22 20 18 18 16 16 15 14 14 13 14 15 16 17 20 19 16 16
26 24 24 23 22 21 21 20 19 19 19 20 21 21 21 21 19 20 21 21 23 23 23 24 25 24 23 22 20 18 17 18 18 16 15 15 15 15 16 17 17 19 19 19
28 26 26 25 24 23 22 22 21 21 21 21 22 22 22 22 22 22 22 23 22 23 24 25 25 25 24 23 22 21 21 20 21 19 18 18 18 18 18 18 19 20 21 20
28 28 26 25 25 25 24 23 22 21 21 21 21 22 22 22 23 23 23 23 24 24 25 25 26 26 25 24 23 23 21 21 19 20 19 19 19 20 20 19 20 18 18 19
Wind_Direction
261 262 257 258 256 246 245 241 245 256 257 247 268 267 272 276 272 276 283 256 237 230 218 219 240 233 208 207 200 198 198 195 196 195 195 194 194 196 197 198 197 195 198 199
261 263 258 255 254 251 248 247 257 258 263 265 253 261 271 271 270 272 278 272 235 234 220 224 223 228 215 216 204 200 201 200 198 197 196 197 198 204 205 201 210 215 207 210
257 262 264 254 245 251 254 253 250 253 262 265 266 268 271 275 267 258 272 269 241 211 210 214 207 204 212 211 213 208 204 205 202 204 204 201 204 213 210 206 219 219 223 224
259 262 250 253 256 252 254 255 257 259 264 263 259 266 268 270 268 263 270 271 241 232 248 245 232 230 213 222 216 213 214 214 214 213 210 211 212 211 219 220 216 222 230 234
255 254 257 256 261 257 249 253 258 256 259 267 264 264 266 266 267 267 271 275 250 239 242 249 249 236 226 229 225 224 221 227 223 219 216 217 216 214 217 228 232 231 241 242
250 252 249 252 265 271 261 250 246 250 251 258 265 258 261 265 269 270 265 268 269 262 260 252 245 239 227 232 227 228 219 224 227 226 225 220 219 224 228 230 229 245 249 249
243 249 255 259 276 270 244 250 250 248 250 252 261 265 268 259 267 268 264 267 270 268 258 252 250 242 240 238 226 223 224 234 243 238 230 228 235 242 239 238 241 243 247 257
238 242 244 272 269 260 264 261 252 247 247 242 249 260 261 263 270 270 273 272 274 272 273 273 265 250 249 243 241 237 240 242 245 243 245 247 245 246 245 247 245 246 246 250
234 240 246 267 271 274 274 256 250 230 234 225 232 246 259 268 272 277 281 284 285 285 286 288 279 273 268 260 254 248 244 245 249 251 250 247 248 245 247 245 247 249 246 246
233 241 238 261 274 275 271 260 263 245 227 238 220 240 257 274 285 286 289 295 299 296 293 295 298 292 280 277 274 267 259 255 256 251 247 249 255 255 252 253 245 245 246 249
234 240 232 245 268 269 265 262 259 267 245 238 230 248 262 281 290 299 299 304 308 303 297 297 301 302 301 295 283 273 267 266 263 255 253 254 255 250 248 251 246 247 252 252
230 230 224 229 253 258 256 245 247 245 253 281 277 277 286 295 304 310 310 308 308 304 303 306 302 299 299 301 297 288 278 268 259 257 251 251 255 255 251 252 255 254 264 268
228 219 211 228 256 254 242 230 232 247 300 299 308 304 303 301 303 307 311 311 310 306 308 307 304 304 301 296 294 293 288 281 261 253 246 246 240 247 243 251 263 269 249 251
201 190 201 242 231 235 211 216 218 356 345 333 323 316 313 315 311 312 315 314 315 317 319 317 312 306 306 304 299 294 284 272 267 264 246 229 218 225 232 254 277 288 274 276
198 193 196 231 225 210 219 263 324 318 323 334 341 332 326 320 319 314 320 322 325 327 324 324 324 324 327 324 323 337 314 299 247 248 264 214 220 254 273 280 266 241 211 156
187 179 211 237 273 271 316 308 301 313 325 332 327 329 325 324 325 328 333 334 331 328 333 334 337 334 345 351 352 5 40 101 117 218 249 292 276 253 178 152 195 165 156 158
172 199 227 245 259 261 280 318 312 312 324 335 336 325 328 324 329 330 341 340 335 338 343 346 346 351 358 12 29 40 61 72 81 80 70 90 106 123 128 131 136 142 144 147
183 212 270 265 276 288 309 308 316 320 332 332 338 344 331 336 332 333 334 335 341 344 347 344 350 350 352 3 17 41 47 47 53 56 60 67 74 95 112 124 134 139 146 147
215 243 282 318 326 321 322 329 330 333 322 326 333 340 336 344 342 333 341 342 337 334 328 333 341 351 354 355 4 18 28 38 43 49 53 62 66 65 87 120 129 146 154 152
46 26 23 4 339 348 345 345 339 343 343 340 335 328 319 321 325 328 337 344 341 342 338 334 330 330 327 339 357 351 351 352 353 360 7 21 22 321 302 309 302 190 187 188
50 45 37 41 31 17 351 7 4 7 9 10 9 358 347 336 342 336 337 339 335 330 338 339 336 328 324 322 322 322 335 338 342 347 342 330 323 316 304 287 288 296 292 262
37 34 30 27 27 19 9 16 22 16 14 9 4 6 354 348 343 347 349 345 339 342 346 343 334 328 327 327 328 327 319 308 308 313 314 320 317 313 305 308 308 299 291 274
27 27 30 25 22 26 20 14 16 16 13 7 4 355 356 352 344 343 340 333 345 354 356 354 348 343 346 354 357 349 344 342 333 327 320 334 325 326 319 330 332 286 269 283
23 19 17 13 14 12 7 0 8 9 8 9 7 359 354 348 350 343 346 352 353 358 357 352 354 355 354 350 351 348 341 335 332 337 338 323 313 299 292 293 288 297 302 302
16 12 8 5 4 2 2 357 3 357 359 0 359 357 357 357 356 348 358 358 354 351 348 348 352 352 352 352 353 345 346 345 336 336 332 322 321 321 321 321 318 313 310 306
16 12 14 13 8 5 3 2 0 353 353 354 351 347 349 353 354 354 354 352 351 351 348 344 345 347 346 346 347 347 344 345 343 343 341 333 325 323 322 320 322 321 319 317
13 12 13 11 8 8 9 6 360 352 355 355 355 350 350 349 351 352 350 349 348 347 345 344 343 344 345 345 343 343 342 342 347 343 342 339 337 334 333 331 329 329 329 328